www.pogodaiklimat.ru

Погода и климат >> Архив погоды >> Малайзия >> Sitiawan


ПОГОДА в Sitiawan

  • Прогноз погоды в Sitiawan
  • Монитор погоды в Sitiawan
  • Климат города

АРХИВ ПОГОДЫ в Sitiawan

Время (UTC), дата Ветер
(напр.,м/с)
 
Видим.   Явления Облачность Т
(С)
Тd
(С)
f
(%)
Тe
(С)
Тes
(С)
Комфортность P
(гПа)
Po
(гПа)
Тmin
(С)
Tmax
(С)
R
(мм)
R24
(мм)
S
(см)
03 11.08 ЮВ 2 8000 м мгла 9/1 660 м
[Cu hum Ac trans Ci sp]
+30.4 +24.4 70 +42 +50 опасность
перегрева
1010.7 1009.8
06 11.08 Ю 2 10 км мгла 9/4 600 м
[Cu med, cong Ac trans Ci sp]
+31.4 +25.5 71 +46 +53 опасность
перегрева
1009.0 1008.1
09 11.08 ЮЗ 3 11 км мгла 9/1 660 м
[Cu hum Ac trans Ci sp]
+31.3 +25.0 69 +45 +48 опасность
перегрева
1007.0 1006.1
12 11.08 Ю 1 11 км мгла 9/1 960 м
[Sc Ac trans Ci sp]
+28.8 +25.1 80 +42 +42 опасность
перегрева
1007.4 1006.5 +32.8
15 11.08 штиль 0 10 км мгла 9/1 960 м
[Sc Ac trans Ci sp]
+26.3 +24.3 89 +37 +37 очень
душно
1009.7 1008.8
18 11.08 штиль 0 7000 м мгла 9/3 1000 м
[Sc Ac trans Ci fib]
+24.9 +23.7 93 +34 +34 очень
душно
1009.5 1008.6
21 11.08 штиль 0 6000 м дымка 9/3 150 м
[Sc Ac trans Ci sp]
+24.3 +23.5 95 +33 +33 очень
душно
1008.6 1007.7
00 12.08 В 1 8000 м дымка 9/1 960 м
[Sc Ac trans Ci sp]
+24.0 +23.2 95 +32 +32 очень
душно
1008.9 1008.0 +23.7
03 12.08 ЮВ 2 13 км мгла 9/1 660 м
[Cu hum Ac trans Ci sp]
+31.0 +24.1 67 +43 +50 опасность
перегрева
1010.2 1009.3
06 12.08 Ю 3 13 км мгла 9/3 660 м
[Cu hum Ac trans Ci sp]
+33.2 +23.1 55 +43 +50 опасность
перегрева
1008.6 1007.7
09 12.08 Ю 2 12 км мгла 9/1 720 м
[Cu hum Ac trans Ci sp]
+32.4 +23.0 58 +43 +46 опасность
перегрева
1006.9 1006.0
12 12.08 штиль 0 12 км мгла 9/1 960 м
[Sc Ac trans Ci sp]
+29.5 +23.4 70 +40 +40 очень
душно
1007.2 1006.3 +33.5
15 12.08 штиль 0 11 км мгла 9/1 1020 м
[Sc Ac trans Ci sp]
+25.7 +23.2 86 +34 +34 очень
душно
1009.2 1008.3
18 12.08 штиль 0 9000 м мгла 9/3 960 м
[Sc Ac trans Ci sp]
+24.3 +22.7 91 +32 +32 очень
душно
1009.0 1008.1
21 12.08 штиль 0 9000 м мгла 9/4 900 м
[Sc Ac trans Ci sp]
+23.4 +21.6 90 +32 +32 очень
душно
1008.4 1007.5
00 13.08 штиль 0 10 км мгла 9/1 600 м
[Cu Sc Ac trans Ci sp]
+23.1 +21.6 91 +31 +32 очень
душно
1009.7 1008.8 +22.7
03 13.08 В 2 10 км мгла 8/1 700 м
[Cu Sc Ac trans Ci sp]
+31.0 +24.7 69 +44 +52 опасность
перегрева
1010.2 1009.3
06 13.08 ЮЗ 2 10 км мгла 9/3 660 м
[Cu hum Ac lent Cs]
+32.8 +24.4 61 +45 +54 опасность
перегрева
1008.7 1007.8
09 13.08 ЮЗ 2 11 км мгла 9/1 700 м
[Cu hum Ac lent Cs]
+32.1 +22.8 58 +42 +46 опасность
перегрева
1006.9 1006.0
12 13.08 штиль 0 10 км мгла 9/1 960 м
[Sc Ac trans Ci sp]
+29.2 +23.1 70 +39 +39 очень
душно
1008.1 1007.2 +33.1
15 13.08 штиль 0 8000 м мгла 9/3 1000 м
[Sc Ac trans Ci sp]
+25.9 +23.5 87 +35 +35 очень
душно
1009.6 1008.7
18 13.08 штиль 0 8000 м мгла 9/3 1000 м
[Sc Ac lent Ci sp]
+24.2 +22.7 91 +32 +32 очень
душно
1009.4 1008.5
21 13.08 В 1 8000 м мгла 9/3 960 м
[Sc Ac lent Ci sp]
+23.9 +22.1 90 +31 +31 очень
душно
1008.2 1007.3
00 14.08 В 1 6000 м мгла 9/1 960 м
[Sc Ac trans Ci sp]
+24.1 +21.6 86 +31 +31 очень
душно
1008.7 1007.8 +23.2
03 14.08 ЮВ 2 800 м дым 9/1 600 м
[Cu med, cong Ac trans Ci sp]
+30.8 +24.9 71 +44 +51 опасность
перегрева
1010.1 1009.2
06 14.08 Ю 4 13 км мгла 8/1 660 м
[Cu hum Ac trans Ci fib]
+33.6 +22.8 53 +43 +51 опасность
перегрева
1007.8 1006.9
09 14.08 Ю 3 11 км мгла 9/1 500 м
[Cb cap Ac trans Ci sp]
+33.3 +21.8 51 +42 +45 опасность
перегрева
1006.3 1005.4
12 14.08 штиль 0 11 км мгла 9/1 960 м
[Sc Ac trans Ci sp]
+30.1 +24.7 73 +43 +43 опасность
перегрева
1007.3 1006.4 +34.0
15 14.08 штиль 0 9000 м мгла 9/3 960 м
[Sc Ac trans Ci sp]
+26.8 +22.9 79 +36 +36 очень
душно
1009.0 1008.1
18 14.08 штиль 0 7000 м мгла 9/4 900 м
[Sc Ac trans Ci sp]
+25.8 +23.1 85 +34 +34 очень
душно
1009.4 1008.5
21 14.08 штиль 0 6000 м мгла 9/3 960 м
[Sc Ac trans Cs]
+24.8 +22.9 89 +33 +33 очень
душно
1008.8 1007.9
00 15.08 ЮВ 1 8000 м мгла 9/1 960 м
[Sc Ac lent Cs]
+25.0 +22.4 86 +33 +33 очень
душно
1009.3 1008.4 +24.1
03 15.08 ЮВ 2 4000 м мгла 9/3 700 м
[Cu hum Ac lent Cs]
+30.0 +25.1 75 +43 +49 опасность
перегрева
1011.0 1010.1
06 15.08 Ю 4 5000 м мгла 9/3 700 м
[Cu hum Ac trans Cs]
+33.1 +24.7 61 +46 +52 опасность
перегрева
1008.5 1007.6
09 15.08 Ю 4 7000 м мгла 9/1 660 м
[Cu hum Ac trans Ci sp]
+32.9 +22.9 56 +43 +46 опасность
перегрева
1006.6 1005.7
12 15.08 Ю 1 7000 м мгла 9/1 960 м
[Sc Ac trans Ci sp]
+30.2 +24.5 72 +43 +43 опасность
перегрева
1007.4 1006.5 +33.5
15 15.08 штиль 0 7000 м мгла 9/3 1000 м
[Sc Ac trans Ci sp]
+26.9 +24.7 88 +38 +38 очень
душно
1009.4 1008.5
18 15.08 штиль 0 7000 м мгла 9/3 960 м
[Sc Ac lent Ci sp]
+25.4 +23.8 91 +35 +35 очень
душно
1009.0 1008.1
21 15.08 штиль 0 7000 м мгла 9/3 960 м
[Cu hum Ac lent Ci sp]
+24.9 +23.4 91 +33 +33 очень
душно
1008.5 1007.6
00 16.08 штиль 0 6000 м мгла 9/3 960 м
[Sc Ac trans Ci sp]
+24.9 +23.0 89 +33 +34 очень
душно
1009.0 1008.1 +24.8
03 16.08 С 1 6000 м мгла 9/3 500 м
[Cb cap Ac trans Ci sp]
+32.0 +24.9 66 +45 +52 опасность
перегрева
1009.8 1008.9
06 16.08 З 3 6000 м гроза без осадков 9/4 500 м
[Cb cap Ac trans Cs]
+31.6 +25.1 69 +46 +52 опасность
перегрева
1008.2 1007.3
09 16.08 ЮЗ 2 7000 м мгла 9/3 500 м
[Cb cap Ac lent Cs]
+31.4 +24.8 68 +45 +48 опасность
перегрева
1006.7 1005.8
12 16.08 штиль 0 6000 м мгла 9/3 960 м
[Sc Ac lent Cs]
+29.4 +26.0 82 +44 +44 опасность
перегрева
1006.7 1005.8 +33.3
15 16.08 штиль 0 7000 м мгла 9/3 1000 м
[Sc Ac lent Cs]
+26.9 +25.1 90 +39 +39 очень
душно
1008.6 1007.7
18 16.08 СВ 1 6000 м мгла 9/3 960 м
[Sc Ac trans Ci sp]
+25.4 +24.2 93 +35 +35 очень
душно
1007.8 1006.9
21 16.08 штиль 0 6000 м дымка 9/3 180 м
[Sc Ac trans Ci sp]
+24.5 +23.7 95 +33 +33 очень
душно
1007.0 1006.1
00 17.08 ЮВ 1 7000 м мгла 9/3 500 м
[Cb cap Ac trans Ci sp]
+24.5 +23.4 94 +33 +33 очень
душно
1007.5 1006.6 +24.2
03 17.08 СВ 1 6000 м мгла 9/3 660 м
[Cu hum Ac lent Cs]
+30.9 +24.7 70 +44 +51 опасность
перегрева
1008.3 1007.4
06 17.08 Ю 3 8000 м мгла 9/3 660 м
[Cu hum Ac lent Ci sp]
+33.5 +25.3 62 +48 +55 опасность
перегрева
1005.6 1004.7
09 17.08 ЮЗ 3 8000 м мгла 8/1 700 м
[Cu hum Ac trans Ci fib]
+33.0 +23.7 58 +44 +48 опасность
перегрева
1004.1 1003.2
12 17.08 штиль 0 8000 м мгла 9/3 960 м
[Sc diur, vesp Ac trans Ci sp]
+29.9 +25.0 75 +43 +43 опасность
перегрева
1005.3 1004.4 +34.7
15 17.08 штиль 0 8000 м мгла 9/3 960 м
[Sc Ac trans Ci sp]
+27.7 +25.3 87 +40 +40 очень
душно
1007.3 1006.4
18 17.08 штиль 0 7000 м зарница 9/4 500 м
[Cb cap Ac lent Cs]
+27.1 +25.2 89 +39 +39 очень
душно
1007.4 1006.5
21 17.08 Ю 1 6000 м гроза, ливневой дождь 9/4 500 м
[Cb cap Ac lent Cs]
+22.5 +21.8 96 +30 +30 очень
душно
1007.6 1006.7

 

Местоположение метеостанции Sitiawan (Малайзия): широта 4.22 долгота 100.70 высота над уровнем моря 8 м.

В архиве по умолчанию представлена погода в Sitiawan за последнюю неделю. Архивные данные за месяц целиком и за предыдущие месяцы, начиная с января 2011 года, Вы можете получить, выбрав интересующий диапазон дат из раскрывающегося списка и нажав кнопку "Ввод!".


*Определитесь, кто Вы:
робот инопланетянин человек

Внимание! Время в таблицах - всемирное. Для получения местного времени необходимо прибавить поправку, которая в Sitiawan равна 7 ч.

Смотрите также архив погоды в соседних городах и на ближайших метеорологических станциях:

Погода в Ipoh (Малайзия) (59 км)
Погода в Cameron Highlands (Малайзия) (79 км)
Погода в Penang (Малайзия) (130 км)
Погода в Butterworth Air Base (Малайзия) (143 км)
Погода в Kuala Lumpur (Малайзия) (155 км)
Погода в Kuala Lumpur Int Airport (Малайзия) (200 км)
Погода в Alor Star (Малайзия) (223 км)
Погода в Belawan (Индонезия) (227 км)
Погода в Medan Polonia Int Airport (Индонезия) (236 км)
Погода в Langkawi (Малайзия) (258 км)

Пояснения к столбцам:

Ветер - указаны скорость ветра в м/с - средняя за 10 мин, порывы в срок и между сроками (в фигурных скобках) и направление, откуда дует ветер: С - северный, СВ - северо-восточный, В - восточный, ЮВ - юго-восточный, Ю - южный, ЮЗ - юго-западный, З - западный, СЗ - северо-западный.
Видимость - горизонтальная дальность видимости в метрах или километрах. При видимости от 1 до 10 км при отсутствии осадков обычно наблюдается дымка, при ухудшении видимости до 1 км и менее - туман. В сухую погоду видимость может ухудшаться дымом, пылью или мглою.
Явления - указаны атмосферные явления, наблюдавшиеся в срок или в последний час перед сроком; фигурными скобками обозначены явления, наблюдавшиеся между сроками (за 1-3 часа до срока); квадратными скобками обозначены град или гололедные отложения с указанием их диаметра в мм.
Облачность - указаны через наклонную черту общая и нижняя облачность в баллах и высота нижней границы облаков в метрах; квадратными скобками обозначены формы облаков: Ci - перистые, Cs - перисто-слоистые, Cc - перисто-кучевые, Ac - высококучевые, As - высокослоистые, Sc - слоисто-кучевые, Ns - слоисто-дождевые, Cu - кучевые, Cb - кучево-дождевые. Подробнее классификацию облаков см. в Атласе облаков (PDF).
T - Температура воздуха - температура, измеренная на высоте 2 м над землей.
Td - Температура точки росы - температура, при понижении до которой содержащийся в воздухе водяной пар достигнет насыщения.
f - Относительная влажность воздуха - влажноcть воздуха, измеренная на высоте 2 м над землей.
Te - Эффективная температура - температура, которую ощущает одетый по сезону человек в тени. Характеристика душности погоды. При расчете учитывается влияние влажности воздуха и скорости ветра на теплоощущения человека.
Tes - Эффективная температура на солнце - температура, которую ощущает человек, с поправкой на солнечный нагрев. Характеристика знойности погоды. Зависит от высоты солнца над горизонтом, облачности и скорости ветра. Ночью, в пасмурную погоду, а также при ветре 12 м/с и более поправка равна нулю.
P - Атмосферное давление - приведенное к уровню моря атмосферное давление.
Po - Атмосферное давление - измеренное на уровне метеостанции атмосферное давление.
Tmin - Минимальная температура - минимум температуры воздуха на высоте 2 м над землей.
Tmax - Максимальная температура - максимум температуры воздуха на высоте 2 м над землей.
R - Количество осадков - Количество выпавших осадков за период времени, мм. При наведении курсора мыши на число - период времени, за который выпало указанное количество осадков.
R24 - Количество осадков - Количество выпавших осадков за 24 часа, мм.
S - Снежный покров - Высота снежного покрова, см. При наведении курсора мыши на число - состояние снежного покрова и степень покрытия местности в баллах.